Location: Härggis
(46.9540°N, 8.4897°E)
Time: 23:39:17
(UTC+00:00)

Cosmos 2251 Rocket - Pass Details

Date: 27 May 2022
Orbit: 764 x 791 km, 74.0° (Epoch: 02 July)

Event Time Altitude Azimuth Distance (km) Brightness Sun altitude
Rises 01:22:58 0° 340° (NNW) 3,248 7.4 -16.6°
Reaches altitude 10° 01:25:24 10° 346° (NNW) 2,321 6.6 -16.4°
Maximum altitude 01:30:34 54° 64° (ENE) 934 4.2 -16.0°
Drops below altitude 10° 01:35:44 10° 141° (SE) 2,321 5.8 -15.5°
Sets 01:38:10 0° 146° (SE) 3,249 6.5 -15.3°
